Regional Weather Roundup
Issued by NWS

Home | Current Version | Previous Version | Graphics & Text | Print | Product List | Glossary Off
Versions: 1 2 3 4 5 6 7 8 9 10 11 12 13 14 15 16 17 18 19 20 21 22 23 24 25 26 27 28 29 30 31 32 33 34 35 36 37 38 39 40 41 42 43 44 45 46 47 48 49 50

000
ASUS43 KFSD 260510
RWRSD

WEATHER ROUNDUP FOR SOUTH DAKOTA
NATIONAL WEATHER SERVICE SIOUX FALLS SD
1200 AM CDT SUN APR 26 2015

NOTE: "FAIR" INDICATES FEW OR NO CLOUDS BELOW 12,000 FEET WITH NO
SIGNIFICANT WEATHER AND/OR OBSTRUCTIONS TO VISIBILITY.


SDZ001>005-009-010-012>017-260600-
NORTHWEST AND NORTH CENTRAL SOUTH DAKOTA

CITY           SKY/WX    TMP DP  RH WIND       PRES   REMARKS
BUFFALO          N/A     43  41  93 NW3       29.85R
FAITH            N/A     48  47  96 E9        29.87S
MOBRIDGE       CLOUDY    51  42  71 E14       29.89R
$$

SDZ012>016-024>037-041>051-057-063-072>074-260600-
SOUTHWEST AND SOUTH CENTRAL SOUTH DAKOTA

CITY           SKY/WX    TMP DP  RH WIND       PRES   REMARKS
RAPID CTY ARPT LGT RAIN  46  42  86 N16       29.86F
PIERRE         CLOUDY    53  46  77 SE7       29.88S
CUSTER         CLOUDY    43  41  93 NE5       29.87S
ELLSWORTH AFB  CLOUDY    46  43  89 N16       29.86
PHILIP         LGT RAIN  53  46  77 SE9       29.85R
PINE RIDGE     CLOUDY    49  46  90 CALM      29.83R
SPEARFISH      MOCLDY    39  39 100 NW7       29.92S FOG
WINNER         CLOUDY    52  45  77 SE7       29.89R
$$

SDZ004>011-016>023-039-040-260600-
NORTHEAST SOUTH DAKOTA

CITY           SKY/WX    TMP DP  RH WIND       PRES   REMARKS
ABERDEEN       CLOUDY    51  42  71 E6        29.95R
WATERTOWN      MOCLDY    48  40  73 E3        29.96R
BROOKINGS      PTCLDY    45  39  81 SE7       29.97R
SISSETON         N/A     43  40  89 CALM      29.96R
$$

SDZ017-020-022-023-036>040-048>070-260600-
SOUTHEAST SOUTH DAKOTA

CITY           SKY/WX    TMP DP  RH WIND       PRES   REMARKS
SIOUX FALLS    MOCLDY    47  38  71 E6        29.95R
HURON          PTCLDY    51  42  71 SE10      29.93R
CHAMBERLAIN    CLOUDY    53  42  66 E10       29.90R
MITCHELL       MOCLDY    51  43  74 SE10      29.94R
YANKTON        CLOUDY    52  39  62 E9        29.93R
$$

ABBREVIATIONS USED IN REMARKS
   TC - TEMPERATURE IN CELSIUS
  WCI - WIND CHILL INDEX
   HX - HEAT INDEX
  VSB - VISIBILITY




USA.gov is the U.S. government's official web portal to all federal, state and local government web resources and services.